This demonstration page uses our WeatherBlox Daily Observations layout. Learn more.

Left ArrowRight Arrow

Hourly Observations for August 31, 2019

Temp ( °F °C ) Dew Point ( °F °C ) Humidity (%) Winds ( mph kmh ) Pressure ( in mb ) Visibility ( mi km ) Precip ( " mm )
12:56 am 00:56 Cloudy 68 20 57 14 69 69 E 6 9 30.22 1024 10 16 0.00 0.00
1:56 am 01:56 Mostly Cloudy 66 19 57 14 73 73 ESE 7 11 30.19 1023 10 16 0.00 0.00
2:56 am 02:56 Mostly Cloudy 66 19 57 14 73 73 ENE 3 6 30.22 1023 10 16 0.00 0.00
3:19 am 03:19 Mostly Cloudy with Light Showers 66 19 57 14 73 73 ENE 6 9 30.20 1023 10 16 0.00 0.00
3:55 am 03:55 Mostly Cloudy with Thunderstorms 64 18 57 14 78 78 E 12 19 30.19 1022 6 10 0.00 0.00
3:56 am 03:56 Mostly Cloudy with Thunderstorms 64 18 57 14 78 78 E 12 19 30.19 1022 6 10 0.00 0.00
4:20 am 04:20 Mostly Cloudy with Light Showers 63 17 59 15 88 88 E 7 11 30.19 1023 8 13 0.00 0.00
4:56 am 04:56 Mostly Cloudy 63 17 59 15 88 88 Calm 30.21 1023 10 16 0.06 1.52
5:14 am 05:14 Cloudy with Light Showers 63 17 59 15 88 88 SE 7 11 30.21 1023 6 10 0.00 0.00
5:56 am 05:56 Partly Cloudy 63 17 59 15 88 88 S 5 7 30.21 1023 10 16 0.06 1.52
6:56 am 06:56 Mostly Cloudy 63 17 57 14 83 83 ESE 8 13 30.20 1023 10 16 0.02 0.51
7:56 am 07:56 Mostly Cloudy with Light Showers 63 17 57 14 83 83 ESE 6 9 30.21 1023 10 16 0.00 0.00
8:03 am 08:03 Mostly Sunny 63 17 57 14 83 83 SE 7 11 30.21 1023 2 3 0.00 0.00
8:56 am 08:56 Mostly Cloudy 63 17 55 13 77 77 ESE 5 7 30.23 1024 10 16 0.00 0.00
9:56 am 09:56 Mostly Cloudy 64 18 55 13 73 73 ESE 6 9 30.23 1024 10 16 0.00 0.00
10:56 am 10:56 Partly Cloudy 64 18 55 13 73 73 SE 8 13 30.23 1024 10 16 0.00 0.00
11:56 am 11:56 Mostly Cloudy 68 20 54 12 60 60 ESE 7 11 30.23 1024 10 16 0.00 0.00
12:56 pm 12:56 Mostly Cloudy 70 21 54 12 57 57 E 10 17 30.22 1023 10 16 0.00 0.00
2:56 pm 14:56 Mostly Cloudy 73 23 52 11 47 47 E 8 13 30.16 1022 10 16 0.00 0.00
3:56 pm 15:56 Partly Cloudy 73 23 50 10 44 44 SSE 8 13 30.16 1021 10 16 0.00 0.00
4:56 pm 16:56 Mostly Cloudy 73 23 50 10 44 44 ESE 7 11 30.14 1021 10 16 0.00 0.00
5:56 pm 17:56 Mostly Sunny 73 23 52 11 47 47 ESE 8 13 30.14 1021 10 16 0.00 0.00
6:56 pm 18:56 Mostly Cloudy 73 23 55 13 53 53 E 7 11 30.14 1021 10 16 0.00 0.00
7:56 pm 19:56 Mostly Sunny 72 22 57 14 61 61 E 3 6 30.15 1021 10 16 0.00 0.00
8:56 pm 20:56 Mostly Cloudy 70 21 59 15 69 69 ENE 5 7 30.16 1021 10 16 0.00 0.00
9:56 pm 21:56 Mostly Cloudy 66 19 59 15 78 78 E 7 11 30.18 1022 10 16 0.00 0.00
10:56 pm 22:56 Mostly Cloudy 64 18 59 15 83 83 E 8 13 30.19 1022 10 16 0.00 0.00
11:56 pm 23:56 Mostly Clear 64 18 59 15 83 83 ESE 7 11 30.18 1022 10 16 0.00 0.00

Powered by AerisWeather